K1ADM Weather Reports


time (UTC)temp
C
wind
direction
speed
KPH
gust
KPH
rain 1hr
cm
rain 24hr
cm
rain mn
cm
humidity
%
barometer
mb
20260508100503 6 270 4.8 4.8 0.00 3.66 0.00 66 1009.2
20260508100003 7 270 4.8 4.8 0.00 3.66 0.00 68 1089.9
20260508095502 6 270 4.8 4.8 0.00 3.66 0.00 68 1012.8
20260508095003 6 270 4.8 4.8 0.00 3.66 0.00 68 1025.8
20260508094503 6 270 3.2 4.8 0.00 3.66 0.00 67 1020.7
20260508094003 7 315 4.8 4.8 0.00 3.66 0.00 67 1091.1
20260508093503 6 315 4.8 4.8 0.00 3.66 0.00 67 1061.6
20260508092503 10 270 8.0 8.0 0.00 3.66 0.00 67 1094.5
20260508092003 9 270 8.0 8.0 0.00 3.66 0.00 67 1094.5
20260508091503 8 270 8.0 8.0 0.00 3.66 0.00 67 1094.5
20260508091002 7 270 8.0 8.0 0.00 3.66 0.00 67 1079.9
20260508090503 6 270 6.4 8.0 0.00 3.66 0.00 67 1015.5
20260508090003 7 270 8.0 8.0 0.00 3.66 0.00 65 1090.6
20260508085502 6 270 8.0 8.0 0.00 3.66 0.00 65 1025.1
20260508085003 6 276 4.8 11.3 0.00 3.66 0.00 66 1025.1
20260508084503 6 270 4.8 11.3 0.00 3.66 0.00 64 1030.8
20260508084003 12 293 11.3 11.3 0.00 3.66 0.00 63 1094.3
20260508083503 11 293 11.3 11.3 0.00 3.66 0.00 63 1094.3
20260508082503 8 293 11.3 11.3 0.00 3.66 0.00 63 1094.3
20260508081502 6 293 4.8 11.3 0.00 3.66 0.00 63 1018.6
20260508081003 6 293 9.7 11.3 0.00 3.66 0.00 63 1024.8
20260508080002 6 270 3.2 8.0 0.00 3.66 0.00 64 1024.8
20260508075503 6 315 8.0 8.0 0.00 3.66 0.00 64 1034.4
20260508075003 12 270 8.0 8.0 0.00 3.66 0.00 64 1087.1
20260508074502 11 270 8.0 8.0 0.00 3.66 0.00 64 1087.1
20260508074003 10 270 8.0 8.0 0.00 3.66 0.00 64 1087.0
20260508073503 9 270 8.0 8.0 0.00 3.66 0.00 64 1087.2
20260508073003 8 270 8.0 8.0 0.00 3.66 0.00 64 1081.0
20260508072503 7 270 8.0 8.0 0.00 3.66 0.00 64 1075.9
20260508072003 7 285 4.8 8.0 0.00 3.66 0.00 64 1088.0
20260508071503 8 293 8.0 8.0 0.00 3.66 0.00 63 1088.1
20260508071003 7 293 8.0 8.0 0.00 3.66 0.00 63 1087.7
20260508070003 10 270 8.0 8.0 0.00 3.66 0.00 59 1092.9
20260508065003 7 270 8.0 8.0 0.00 3.66 0.00 59 1065.8
20260508064503 7 270 4.8 8.0 0.00 3.66 0.00 59 1075.9
20260508064003 7 270 4.8 8.0 0.00 3.66 0.00 59 1041.7
20260508063503 8 270 8.0 8.0 0.00 3.66 0.00 58 1076.3
20260508063003 8 270 4.8 8.0 0.00 3.66 0.00 58 1073.2
20260508062502 10 270 8.0 8.0 0.00 3.66 0.00 60 1091.1
20260508062003 9 270 8.0 8.0 0.00 3.66 0.00 60 1091.1
20260508061503 8 270 8.0 8.0 0.00 3.66 0.00 60 1090.4
20260508061003 7 270 6.4 8.0 0.00 3.66 0.00 60 1042.4
20260508060003 7 270 8.0 8.0 0.00 3.66 0.00 61 1070.4
20260508055503 7 270 8.0 8.0 0.00 3.66 0.00 61 1076.6
20260508055003 14 285 4.8 8.0 0.00 3.66 0.00 59 1067.0
20260508054503 13 293 8.0 8.0 0.00 3.66 0.00 58 1096.1
20260508054003 12 293 8.0 8.0 0.00 3.66 0.00 58 1096.1
20260508053503 11 293 8.0 8.0 0.00 3.66 0.00 58 1096.1
20260508053004 10 293 8.0 8.0 0.00 3.66 0.00 58 1096.1
20260508052503 9 293 8.0 8.0 0.00 3.66 0.00 58 1076.9
20260508051003 11 270 8.0 8.0 0.00 3.66 0.00 54 1097.0
20260508050503 10 270 8.0 8.0 0.00 3.66 0.00 54 1096.3
20260508045503 8 270 4.8 9.7 0.00 3.66 0.00 54 1021.9
20260508045003 8 271 3.2 9.7 0.00 3.66 0.00 54 1091.3
20260508044503 9 293 8.0 8.0 0.00 3.66 0.00 54 1076.9
20260508044004 8 293 3.2 8.0 0.00 3.66 0.00 54 1025.4
20260508043503 13 270 0.0 0.0 0.00 3.66 0.00 54 1090.0
20260508043003 12 270 0.0 0.0 0.00 3.66 0.00 54 1090.0
20260508042503 11 270 0.0 0.0 0.00 3.66 0.00 54 1090.1
20260508041504 9 270 0.0 0.0 0.00 3.66 0.00 54 1060.0
20260508041004 9 248 0.0 0.0 0.00 3.66 0.00 53 1073.6
20260508040503 12 288 0.0 0.0 0.00 3.66 0.00 53 1093.2
20260508040004 11 293 0.0 0.0 0.00 3.66 0.00 53 1093.2
20260508035503 10 293 0.0 0.0 0.00 3.66 3.66 53 1092.8
20260508035003 8 293 0.0 0.0 0.00 3.66 3.66 53 1020.3
20260508034503 8 270 0.0 0.0 0.00 3.66 3.66 52 1026.5
20260508034004 9 270 0.0 0.0 0.00 3.66 3.66 51 1027.6
20260508033503 9 270 0.0 0.0 0.00 3.66 3.66 51 1026.5
20260508033003 9 293 0.0 14.5 0.00 3.66 3.66 50 1034.9
20260508032503 9 270 8.0 14.5 0.00 3.66 3.66 50 1026.1
20260508032003 8 293 8.0 14.5 0.00 3.66 3.66 50 1036.0
20260508031503 10 203 14.5 14.5 0.00 3.66 3.66 50 1076.9
20260508031003 10 312 11.3 14.5 0.00 3.66 3.66 50 1050.7
20260508030503 9 283 12.9 14.5 0.00 3.66 3.66 50 1076.9
20260508030003 10 257 12.9 14.5 0.00 3.66 3.66 50 1093.3
20260508025503 9 248 14.5 14.5 0.00 3.66 3.66 50 1026.1
20260508024504 12 270 4.8 4.8 0.00 3.66 3.66 48 1091.6
20260508024004 11 270 4.8 4.8 0.00 3.66 3.66 48 1076.2
20260508023503 10 270 3.2 4.8 0.00 3.66 3.66 48 1042.2
20260508023003 12 270 4.8 4.8 0.00 3.66 3.66 48 1080.6
20260508022503 11 270 4.8 4.8 0.00 3.66 3.66 48 1075.9
20260508021503 28 270 3.2 4.8 0.00 3.66 3.66 49 1091.2
20260508020503 26 270 4.8 4.8 0.00 3.66 3.66 51 1091.2
20260508020004 25 270 4.8 4.8 0.00 3.66 3.66 51 1091.2
20260508015503 23 270 4.8 4.8 0.00 3.66 3.66 51 1091.2
20260508014503 22 270 4.8 4.8 0.00 3.66 3.66 51 1091.2
20260508014003 21 270 4.8 4.8 0.00 3.66 3.66 51 1091.2
20260508013504 20 270 4.8 4.8 0.00 3.66 3.66 51 1091.2
20260508013003 18 270 4.8 4.8 0.00 3.66 3.66 51 1091.2
20260508012501 17 270 4.8 4.8 3.05 3.66 3.66 51 1091.2
20260508012002 16 270 4.8 4.8 18.29 3.66 3.66 51 1091.2
20260508011501 15 270 4.8 4.8 25.37 3.66 3.66 51 1091.2
20260508011001 14 270 4.8 4.8 25.37 3.66 3.66 51 1091.2
20260508010001 12 270 4.8 4.8 25.37 3.66 3.66 51 1091.2
20260508005501 11 270 4.8 4.8 25.37 3.66 3.66 51 1039.6
20260508005001 15 270 3.2 3.2 25.37 3.66 3.66 49 1092.9
20260508004501 13 270 3.2 3.2 25.37 3.66 3.66 49 1092.9
20260508004001 12 270 3.2 3.2 25.37 3.66 3.66 49 1092.9
20260508003502 11 270 1.6 3.2 25.37 3.66 3.66 49 1033.0
20260508003001 12 270 1.6 3.2 25.37 3.66 3.66 49 1042.1
20260508002502 13 293 3.2 3.2 25.37 3.35 3.35 47 1085.8
20260508002002 12 293 3.2 3.2 17.68 18.29 18.29 47 1079.3
20260508001501 12 293 9.7 19.3 2.44 3.05 3.05 47 1075.6
20260508001002 31 287 9.7 19.3 0.00 0.61 0.61 47 1062.5
20260508000501 30 270 19.3 19.3 0.00 0.61 0.61 41 1087.8
20260508000002 29 270 19.3 19.3 0.00 0.61 0.61 41 1087.8
20260507235501 28 270 19.3 19.3 0.00 0.61 0.61 41 1087.8
20260507235002 27 270 19.3 19.3 0.00 0.61 0.61 41 1087.8
20260507234502 26 270 19.3 19.3 0.00 0.61 0.61 41 1087.8
20260507234002 25 270 19.3 19.3 0.00 0.61 0.61 41 1087.8
20260507233501 23 270 19.3 19.3 0.00 0.61 0.61 41 1087.8
20260507233001 22 270 19.3 19.3 0.00 0.61 0.61 41 1087.8
20260507232502 21 270 19.3 19.3 0.00 0.61 0.61 41 1087.8
20260507232002 20 270 19.3 19.3 0.00 0.61 0.61 41 1087.7
20260507231502 19 270 19.3 19.3 0.00 0.61 0.61 41 1087.8
20260507231001 18 270 19.3 19.3 0.00 0.61 0.61 41 1087.6
20260507230502 17 270 19.3 19.3 0.00 0.61 0.61 41 1088.2
20260507230002 16 270 19.3 19.3 0.00 0.61 0.61 41 1086.3
20260507225501 15 270 16.1 19.3 0.00 0.61 0.61 41 1088.9
20260507225001 14 270 12.9 19.3 0.00 0.61 0.61 41 1026.9
20260507224502 19 248 19.3 19.3 0.00 0.61 0.61 39 1092.9
20260507224002 18 248 19.3 19.3 0.00 0.61 0.61 39 1092.9
20260507223501 17 248 19.3 19.3 0.00 0.61 0.61 39 1092.1
20260507223002 16 248 19.3 19.3 0.00 0.61 0.61 39 1074.2
20260507222502 20 248 12.9 19.3 0.00 0.61 0.61 39 1021.6
20260507221501 21 270 19.3 19.3 0.00 0.61 0.61 41 1088.8
20260507221002 20 270 19.3 19.3 0.00 0.61 0.61 41 1088.8
20260507220502 19 270 19.3 19.3 0.00 0.61 0.61 41 1088.8
20260507220002 18 270 19.3 19.3 0.00 0.61 0.61 41 1088.8
20260507215501 17 270 19.3 19.3 0.00 0.61 0.61 41 1088.8
20260507215001 16 270 19.3 19.3 0.00 0.61 0.61 41 1073.9
20260507214501 28 270 12.9 19.3 0.00 0.61 0.61 41 1006.2
20260507214001 28 270 19.3 19.3 0.00 0.61 0.61 39 1093.6
20260507213502 27 270 19.3 19.3 0.00 0.61 0.61 39 1093.6
20260507213002 26 270 19.3 19.3 0.00 0.61 0.61 39 1093.6
20260507212501 25 270 19.3 19.3 0.00 0.61 0.61 39 1093.6
20260507211002 21 270 19.3 19.3 0.00 0.61 0.61 39 1093.6
20260507210502 20 270 19.3 19.3 0.00 0.61 0.61 39 1093.5
20260507210002 19 270 19.3 19.3 0.00 0.61 0.61 39 1093.8
20260507205002 17 270 16.1 19.3 0.00 0.61 0.61 39 1039.4
20260507203502 18 338 9.7 9.7 0.00 0.61 0.61 40 1091.9
20260507203001 17 338 9.7 9.7 0.00 0.61 0.61 40 1022.4
20260507202502 21 338 9.7 9.7 0.00 0.61 0.61 42 1094.0
20260507202001 20 338 9.7 9.7 0.00 0.61 0.61 42 1093.9
20260507201502 19 338 9.7 9.7 0.00 0.61 0.61 42 1095.9
20260507201001 18 338 9.7 9.7 0.00 0.61 0.61 42 1056.3
20260507200502 17 225 4.8 4.8 0.00 0.61 0.61 42 1067.0
20260507200002 16 247 9.7 11.3 0.00 0.61 0.61 42 1023.5
20260507195502 18 270 11.3 11.3 0.00 0.61 0.61 44 1100.0
20260507194502 17 270 9.7 11.3 0.00 0.61 0.61 44 1022.4
20260507193502 18 270 11.3 11.3 0.00 0.61 0.61 47 1095.5
20260507193002 17 270 11.3 11.3 0.00 0.61 0.61 47 1059.7
20260507192502 18 315 11.3 11.3 0.00 0.61 0.61 50 1068.2
20260507192002 17 315 11.3 11.3 0.00 0.61 0.61 50 1067.6
20260507191502 17 295 9.7 11.3 0.00 0.61 0.61 51 1073.2
20260507191002 16 293 9.7 12.9 0.00 0.61 0.61 51 1039.4
20260507190502 17 270 9.7 12.9 0.00 0.61 0.61 49 1022.4
20260507190003 17 270 11.3 12.9 0.00 0.61 0.61 48 1014.5
20260507185502 23 270 8.0 8.0 0.00 0.61 0.61 46 1092.7
20260507185002 22 270 8.0 8.0 0.00 0.61 0.61 46 1091.8
20260507184502 21 270 8.0 8.0 0.00 0.61 0.61 46 1093.2
20260507184002 20 270 8.0 8.0 0.00 0.61 0.61 46 1090.7
20260507183502 19 270 8.0 8.0 0.00 0.61 0.61 46 1079.5
20260507182502 18 315 8.0 8.0 0.00 0.61 0.61 48 1073.6
20260507182002 20 231 6.4 8.0 0.00 0.61 0.61 50 1087.7
20260507181502 20 225 8.0 8.0 0.00 0.61 0.61 51 1087.6
20260507180502 17 225 8.0 8.0 0.00 0.61 0.61 51 1084.4
20260507175502 22 135 8.0 8.0 0.00 0.61 0.61 49 1087.3
20260507175002 21 135 8.0 8.0 0.00 0.61 0.61 49 1087.3
20260507174502 20 135 8.0 8.0 0.00 0.61 0.61 49 1087.6
20260507174002 18 135 8.0 8.0 0.00 0.61 0.61 49 1073.9
20260507173502 18 199 8.0 11.3 0.00 0.61 0.61 49 1023.1
20260507173002 18 278 12.9 14.5 0.00 0.61 0.61 49 1023.1
20260507171502 17 270 9.7 11.3 0.00 0.61 0.61 53 1027.6
20260507171002 17 270 8.0 11.3 0.00 0.61 0.61 55 1068.5
20260507170502 16 270 8.0 11.3 0.00 0.61 0.61 55 1006.2
20260507170002 18 270 11.3 11.3 0.00 0.61 0.61 52 1074.2
20260507165502 17 270 8.0 11.3 0.00 0.61 0.61 52 1009.3
20260507165002 27 270 11.3 11.3 0.00 0.61 0.61 55 1083.6
20260507164502 26 270 11.3 11.3 0.00 0.61 0.61 55 1083.6
20260507164002 25 270 11.3 11.3 0.00 0.61 0.61 55 1083.6
20260507163502 25 270 11.3 11.3 0.00 0.61 0.61 55 1083.6
20260507163003 23 270 11.3 11.3 0.00 0.61 0.61 55 1083.6
20260507162502 22 270 11.3 11.3 0.00 0.61 0.61 55 1083.6
20260507162002 21 270 11.3 11.3 0.00 0.61 0.61 55 1083.6
20260507161502 20 270 11.3 11.3 0.00 0.61 0.61 55 1083.5
20260507161002 19 270 11.3 11.3 0.00 0.61 0.61 55 1084.8
20260507160502 18 270 11.3 11.3 0.00 0.61 0.61 55 1089.0
20260507160002 17 270 8.0 11.3 0.00 0.61 0.61 55 1041.0
20260507155502 18 0 11.3 11.3 0.00 0.61 0.61 53 1074.9
20260507155002 17 0 9.7 11.3 0.00 0.61 0.61 53 1045.6
20260507154502 22 293 11.3 11.3 0.00 0.61 0.61 57 1090.1
20260507154003 21 293 11.3 11.3 0.00 0.61 0.61 57 1090.1
20260507153502 20 293 11.3 11.3 0.00 0.61 0.61 57 1090.1
20260507152513 18 293 11.3 11.3 0.00 0.61 0.61 57 1090.1
20260507152002 17 293 11.3 11.3 0.00 0.61 0.61 57 1090.1
20260507151003 18 180 11.3 11.3 0.00 0.61 0.61 62 1088.0
20260507150003 16 180 6.4 11.3 0.00 0.61 0.61 62 1024.5
20260507145502 16 203 11.3 11.3 0.00 0.61 0.61 65 1058.3
20260507144502 22 203 11.3 11.3 0.00 0.61 0.61 68 1087.3
20260507144002 21 203 11.3 11.3 0.00 0.61 0.61 68 1087.3
20260507143502 20 203 11.3 11.3 0.00 0.61 0.61 68 1087.3
20260507143002 18 203 11.3 11.3 0.00 0.61 0.61 68 1087.3
20260507142003 16 203 11.3 11.3 0.00 0.61 0.61 68 1072.9
20260507141503 15 203 11.3 11.3 0.00 0.61 0.61 68 1072.9
20260507141002 14 203 8.0 11.3 0.00 0.61 0.61 68 1040.6
20260507140503 17 338 11.3 11.3 0.00 0.61 0.61 69 1089.2
20260507140003 16 338 11.3 11.3 0.00 0.61 0.61 69 1084.7
20260507134502 14 338 9.7 11.3 0.00 0.61 0.61 68 1091.4
20260507134003 15 338 11.3 11.3 0.00 0.61 0.61 65 1075.6
20260507133502 14 338 8.0 11.3 0.00 0.61 0.61 65 1024.8
20260507133003 14 68 8.0 11.3 0.00 0.61 0.61 68 1037.8
20260507132503 13 315 11.3 11.3 0.00 0.61 0.61 70 1075.6
20260507132002 23 297 11.3 11.3 0.00 0.61 0.61 76 1088.9
20260507131503 22 293 11.3 11.3 0.00 0.61 0.61 78 1088.9
20260507131002 21 293 11.3 11.3 0.00 0.61 0.61 78 1088.9
20260507130503 20 293 11.3 11.3 0.00 0.61 0.61 78 1088.9
20260507125503 17 293 11.3 11.3 0.00 0.61 0.61 78 1088.9
20260507124503 15 293 11.3 11.3 0.00 0.61 0.61 78 1088.9
20260507124003 14 293 11.3 11.3 0.00 0.61 0.61 78 1088.9
20260507123502 13 293 11.3 11.3 0.00 0.61 0.61 78 1088.9
20260507122502 11 293 9.7 11.3 0.00 0.61 0.61 78 1025.1
20260507122002 11 293 11.3 11.3 0.00 0.61 0.61 81 1093.2
20260507121503 10 293 8.0 11.3 0.00 0.61 0.61 81 1025.5
20260507120503 11 338 4.8 4.8 0.61 0.61 0.61 83 1074.3
20260507115503 12 238 0.0 4.8 0.61 0.61 0.61 84 1090.1
20260507115003 12 203 0.0 0.0 0.61 0.61 0.61 84 1090.1
20260507114503 11 203 0.0 0.0 0.61 0.61 0.61 84 1090.0
20260507114002 10 203 0.0 0.0 0.61 0.61 0.61 84 1025.1
20260507113502 9 315 0.0 0.0 0.61 0.61 0.61 85 1025.5
20260507113003 9 293 0.0 0.0 0.61 0.61 0.61 86 1078.2
20260507112502 8 293 0.0 0.0 0.61 0.61 0.61 86 1025.5
20260507112003 8 270 0.0 0.0 0.61 0.61 0.61 86 1036.8
20260507111504 8 315 0.0 0.0 0.61 0.61 0.61 87 1025.5
20260507111002 8 90 0.0 0.0 0.00 0.00 0.00 87 1008.6
20260507110502 19 0 11.3 11.3 0.00 0.00 0.00 58 1006.6
20260507110002 19 0 11.3 11.3 0.00 0.00 0.00 58 1006.6
20260507105502 19 0 11.3 11.3 0.00 0.00 0.00 58 1006.6
20260507104502 19 0 11.3 11.3 0.00 0.00 0.00 58 1006.6
20260507104003 19 0 11.3 11.3 0.00 0.00 0.00 58 1006.6
20260507103502 19 0 11.3 11.3 0.00 0.00 0.00 58 1006.6
20260507103003 19 0 11.3 11.3 0.00 0.00 0.00 58 1006.6
20260507102503 19 0 11.3 11.3 0.00 0.00 0.00 58 1006.6
20260507102003 19 0 11.3 11.3 0.00 0.00 0.00 58 1006.6
20260507101503 19 0 11.3 11.3 0.00 0.00 0.00 58 1006.6
20260507101002 19 0 11.3 11.3 0.00 0.00 0.00 58 1006.6